Time,TemperatureF,DewpointF,PressureIn,WindDirection,WindDirectionDegrees,WindSpeedMPH,WindSpeedGustMPH,Humidity,HourlyPrecipIn,Conditions,Clouds,dailyrainin,SoftwareType,DateUTC
2013-01-17 00:07:00,30.9,29.0,29.96,WSW,240,0.0,-999.0,92,-99.99,,,0.00,weatherlink.com 1.10,2013-01-17 05:07:00,
2013-01-17 00:22:00,30.6,29.0,29.97,WSW,240,0.0,-999.0,92,-99.99,,,0.00,weatherlink.com 1.10,2013-01-17 05:22:00,
2013-01-17 00:37:00,30.5,29.0,29.96,WSW,240,0.0,-999.0,92,-99.99,,,0.00,weatherlink.com 1.10,2013-01-17 05:37:00,
2013-01-17 00:52:00,30.3,28.0,29.97,WSW,240,0.0,-999.0,92,-99.99,,,0.00,weatherlink.com 1.10,2013-01-17 05:52:00,
2013-01-17 01:07:00,30.1,28.0,29.97,WSW,240,0.0,-999.0,92,-99.99,,,0.00,weatherlink.com 1.10,2013-01-17 06:07:00,
2013-01-17 01:22:00,29.9,28.0,29.98,WSW,240,0.0,-999.0,92,-99.99,,,0.00,weatherlink.com 1.10,2013-01-17 06:22:00,
2013-01-17 01:37:00,29.8,28.0,29.99,WSW,240,0.0,-999.0,93,-99.99,,,0.00,weatherlink.com 1.10,2013-01-17 06:37:00,
2013-01-17 01:52:00,29.7,28.0,29.99,WSW,240,0.0,-999.0,93,-99.99,,,0.00,weatherlink.com 1.10,2013-01-17 06:52:00,
2013-01-17 02:07:00,29.7,28.0,29.99,WSW,240,0.0,-999.0,93,-99.99,,,0.00,weatherlink.com 1.10,2013-01-17 07:07:00,
2013-01-17 02:22:00,29.8,28.0,30.00,WSW,240,0.0,-999.0,93,-99.99,,,0.00,weatherlink.com 1.10,2013-01-17 07:22:00,
2013-01-17 02:37:00,29.7,28.0,30.00,WSW,240,0.0,-999.0,93,-99.99,,,0.00,weatherlink.com 1.10,2013-01-17 07:37:00,
2013-01-17 02:52:00,29.7,28.0,29.99,WSW,240,0.0,-999.0,93,-99.99,,,0.00,weatherlink.com 1.10,2013-01-17 07:52:00,
2013-01-17 03:07:00,29.8,28.0,29.99,WSW,240,0.0,-999.0,93,-99.99,,,0.00,weatherlink.com 1.10,2013-01-17 08:07:00,
2013-01-17 03:22:00,29.8,28.0,29.98,WSW,240,0.0,-999.0,93,-99.99,,,0.00,weatherlink.com 1.10,2013-01-17 08:22:00,
2013-01-17 03:38:00,29.9,28.0,30.00,WSW,240,0.0,-999.0,93,-99.99,,,0.00,weatherlink.com 1.10,2013-01-17 08:38:00,
2013-01-17 03:52:00,30.0,28.0,30.00,WSW,240,0.0,-999.0,93,-99.99,,,0.00,weatherlink.com 1.10,2013-01-17 08:52:00,
2013-01-17 04:07:00,30.2,29.0,29.99,WSW,240,0.0,-999.0,94,-99.99,,,0.00,weatherlink.com 1.10,2013-01-17 09:07:00,
2013-01-17 04:22:00,30.8,29.0,30.00,WSW,240,0.0,-999.0,94,-99.99,,,0.00,weatherlink.com 1.10,2013-01-17 09:22:00,
2013-01-17 04:37:00,31.4,30.0,30.01,WSW,240,0.0,-999.0,94,-99.99,,,0.00,weatherlink.com 1.10,2013-01-17 09:37:00,
2013-01-17 04:52:00,31.6,30.0,30.02,WSW,241,0.0,-999.0,94,-99.99,,,0.00,weatherlink.com 1.10,2013-01-17 09:52:00,
2013-01-17 05:07:00,31.8,30.0,30.02,SSW,198,0.0,-999.0,94,-99.99,,,0.00,weatherlink.com 1.10,2013-01-17 10:07:00,
2013-01-17 05:22:00,31.9,30.0,30.03,SSW,198,0.0,-999.0,94,-99.99,,,0.00,weatherlink.com 1.10,2013-01-17 10:22:00,
2013-01-17 05:37:00,32.0,31.0,30.05,SSW,198,0.0,-999.0,94,-99.99,,,0.00,weatherlink.com 1.10,2013-01-17 10:37:00,
2013-01-17 05:52:00,32.1,31.0,30.05,SSW,198,0.0,-999.0,94,-99.99,,,0.00,weatherlink.com 1.10,2013-01-17 10:52:00,
2013-01-17 06:07:00,32.3,31.0,30.05,SSW,198,0.0,-999.0,93,-99.99,,,0.00,weatherlink.com 1.10,2013-01-17 11:07:00,
2013-01-17 06:22:00,32.4,31.0,30.05,SSW,198,0.0,-999.0,93,-99.99,,,0.00,weatherlink.com 1.10,2013-01-17 11:22:00,
2013-01-17 06:37:00,32.3,31.0,30.06,SSW,198,0.0,-999.0,93,-99.99,,,0.00,weatherlink.com 1.10,2013-01-17 11:37:00,
2013-01-17 06:52:00,32.3,31.0,30.07,SSW,198,0.0,-999.0,93,-99.99,,,0.00,weatherlink.com 1.10,2013-01-17 11:52:00,
2013-01-17 07:07:00,32.3,30.0,30.07,SSW,198,0.0,-999.0,92,-99.99,,,0.00,weatherlink.com 1.10,2013-01-17 12:07:00,
2013-01-17 07:22:00,32.3,30.0,30.07,SSW,198,0.0,-999.0,92,-99.99,,,0.00,weatherlink.com 1.10,2013-01-17 12:22:00,
2013-01-17 07:37:00,32.3,30.0,30.07,SSW,198,1.0,-999.0,91,-99.99,,,0.00,weatherlink.com 1.10,2013-01-17 12:37:00,
2013-01-17 08:07:00,32.6,30.0,30.07,SSW,198,2.0,-999.0,91,-99.99,,,0.00,weatherlink.com 1.10,2013-01-17 13:07:00,
2013-01-17 08:23:00,32.7,30.0,30.08,SSW,198,0.0,-999.0,90,-99.99,,,0.00,weatherlink.com 1.10,2013-01-17 13:23:00,
2013-01-17 08:38:00,32.8,30.0,30.09,SSW,198,0.0,-999.0,90,-99.99,,,0.00,weatherlink.com 1.10,2013-01-17 13:38:00,
2013-01-17 08:53:00,33.0,30.0,30.11,SSW,199,1.0,-999.0,89,-99.99,,,0.00,weatherlink.com 1.10,2013-01-17 13:53:00,
2013-01-17 09:08:00,33.4,30.0,30.11,SW,223,0.0,-999.0,88,-99.99,,,0.00,weatherlink.com 1.10,2013-01-17 14:08:00,
2013-01-17 09:23:00,33.8,30.0,30.11,West,267,2.0,-999.0,87,-99.99,,,0.00,weatherlink.com 1.10,2013-01-17 14:23:00,
2013-01-17 09:38:00,34.8,31.0,30.11,WNW,297,4.0,-999.0,85,-99.99,,,0.00,weatherlink.com 1.10,2013-01-17 14:38:00,
2013-01-17 09:53:00,35.6,31.0,30.11,SW,228,2.0,-999.0,84,-99.99,,,0.00,weatherlink.com 1.10,2013-01-17 14:53:00,
2013-01-17 10:08:00,36.2,31.0,30.12,WSW,244,2.0,-999.0,81,-99.99,,,0.00,weatherlink.com 1.10,2013-01-17 15:08:00,
2013-01-17 10:23:00,36.8,31.0,30.12,WSW,257,2.0,-999.0,80,-99.99,,,0.00,weatherlink.com 1.10,2013-01-17 15:23:00,
2013-01-17 10:38:00,37.1,31.0,30.11,NW,306,4.0,-999.0,78,-99.99,,,0.00,weatherlink.com 1.10,2013-01-17 15:38:00,
2013-01-17 10:53:00,37.7,31.0,30.12,West,270,2.0,-999.0,77,-99.99,,,0.00,weatherlink.com 1.10,2013-01-17 15:53:00,
2013-01-17 11:08:00,38.4,31.0,30.12,SW,236,1.0,-999.0,75,-99.99,,,0.00,weatherlink.com 1.10,2013-01-17 16:08:00,
2013-01-17 11:23:00,38.6,31.0,30.11,West,272,4.0,-999.0,74,-99.99,,,0.00,weatherlink.com 1.10,2013-01-17 16:23:00,
2013-01-17 11:38:00,39.1,31.0,30.11,West,266,3.0,-999.0,72,-99.99,,,0.00,weatherlink.com 1.10,2013-01-17 16:38:00,
2013-01-17 11:53:00,39.8,31.0,30.11,WSW,251,4.0,-999.0,70,-99.99,,,0.00,weatherlink.com 1.10,2013-01-17 16:53:00,
2013-01-17 12:08:00,39.3,31.0,30.09,WSW,242,3.0,-999.0,71,-99.99,,,0.00,weatherlink.com 1.10,2013-01-17 17:08:00,
2013-01-17 12:23:00,39.5,31.0,30.09,West,272,3.0,-999.0,71,-99.99,,,0.00,weatherlink.com 1.10,2013-01-17 17:23:00,
2013-01-17 12:38:00,39.5,31.0,30.09,West,267,2.0,-999.0,71,-99.99,,,0.00,weatherlink.com 1.10,2013-01-17 17:38:00,
2013-01-17 12:53:00,39.8,31.0,30.08,SW,221,3.0,-999.0,70,-99.99,,,0.00,weatherlink.com 1.10,2013-01-17 17:53:00,
2013-01-17 13:08:00,39.5,30.0,30.07,WNW,293,4.0,-999.0,70,-99.99,,,0.00,weatherlink.com 1.10,2013-01-17 18:08:00,
2013-01-17 13:23:00,38.7,30.0,30.07,WNW,298,0.0,-999.0,71,-99.99,,,0.00,weatherlink.com 1.10,2013-01-17 18:23:00,
2013-01-17 13:38:00,38.5,30.0,30.07,West,269,0.0,-999.0,72,-99.99,,,0.00,weatherlink.com 1.10,2013-01-17 18:38:00,
2013-01-17 13:53:00,38.6,30.0,30.07,SW,236,0.0,-999.0,72,-99.99,,,0.00,weatherlink.com 1.10,2013-01-17 18:53:00,
2013-01-17 14:08:00,38.8,30.0,30.08,SW,230,2.0,-999.0,71,-99.99,,,0.00,weatherlink.com 1.10,2013-01-17 19:08:00,
2013-01-17 14:24:00,39.0,30.0,30.08,SW,227,0.0,-999.0,71,-99.99,,,0.00,weatherlink.com 1.10,2013-01-17 19:24:00,
2013-01-17 14:38:00,39.1,30.0,30.05,West,268,1.0,-999.0,70,-99.99,,,0.00,weatherlink.com 1.10,2013-01-17 19:38:00,
2013-01-17 14:53:00,38.9,29.0,30.05,WNW,301,2.0,-999.0,69,-99.99,,,0.00,weatherlink.com 1.10,2013-01-17 19:53:00,
2013-01-17 15:08:00,38.7,30.0,30.06,SW,218,5.0,-999.0,70,-99.99,,,0.00,weatherlink.com 1.10,2013-01-17 20:08:00,
2013-01-17 15:24:00,38.4,30.0,30.06,West,262,0.0,-999.0,71,-99.99,,,0.00,weatherlink.com 1.10,2013-01-17 20:24:00,
2013-01-17 15:40:00,38.3,30.0,30.06,West,262,1.0,-999.0,71,-99.99,,,0.00,weatherlink.com 1.10,2013-01-17 20:40:00,
2013-01-17 15:54:00,38.1,29.0,30.06,West,262,1.0,-999.0,71,-99.99,,,0.00,weatherlink.com 1.10,2013-01-17 20:54:00,
2013-01-17 16:10:00,37.8,30.0,30.07,WNW,301,0.0,-999.0,72,-99.99,,,0.00,weatherlink.com 1.10,2013-01-17 21:10:00,
2013-01-17 16:25:00,37.6,30.0,30.08,WNW,301,0.0,-999.0,73,-99.99,,,0.00,weatherlink.com 1.10,2013-01-17 21:25:00,
2013-01-17 16:39:00,37.5,30.0,30.07,WNW,301,0.0,-999.0,74,-99.99,,,0.00,weatherlink.com 1.10,2013-01-17 21:39:00,
2013-01-17 16:55:00,37.2,31.0,30.08,WNW,301,0.0,-999.0,77,-99.99,,,0.00,weatherlink.com 1.10,2013-01-17 21:55:00,
2013-01-17 17:10:00,36.6,31.0,30.08,WNW,301,0.0,-999.0,79,-99.99,,,0.00,weatherlink.com 1.10,2013-01-17 22:10:00,
2013-01-17 17:25:00,36.1,31.0,30.09,WNW,301,0.0,-999.0,80,-99.99,,,0.00,weatherlink.com 1.10,2013-01-17 22:25:00,
2013-01-17 17:40:00,35.7,30.0,30.09,WNW,301,0.0,-999.0,80,-99.99,,,0.00,weatherlink.com 1.10,2013-01-17 22:40:00,
2013-01-17 17:56:00,35.2,30.0,30.09,WNW,301,0.0,-999.0,81,-99.99,,,0.00,weatherlink.com 1.10,2013-01-17 22:56:00,
2013-01-17 18:10:00,35.0,30.0,30.10,WNW,301,0.0,-999.0,82,-99.99,,,0.00,weatherlink.com 1.10,2013-01-17 23:10:00,
2013-01-17 18:26:00,34.7,30.0,30.09,WNW,301,0.0,-999.0,82,-99.99,,,0.00,weatherlink.com 1.10,2013-01-17 23:26:00,
2013-01-17 18:40:00,34.5,30.0,30.09,WNW,301,0.0,-999.0,83,-99.99,,,0.00,weatherlink.com 1.10,2013-01-17 23:40:00,
2013-01-17 18:56:00,34.3,30.0,30.09,WNW,301,0.0,-999.0,84,-99.99,,,0.00,weatherlink.com 1.10,2013-01-17 23:56:00,
2013-01-17 19:11:00,34.2,30.0,30.09,WNW,301,0.0,-999.0,84,-99.99,,,0.00,weatherlink.com 1.10,2013-01-18 00:11:00,
2013-01-17 19:26:00,34.0,30.0,30.09,WNW,301,0.0,-999.0,85,-99.99,,,0.00,weatherlink.com 1.10,2013-01-18 00:26:00,
2013-01-17 19:42:00,33.7,30.0,30.10,WNW,301,0.0,-999.0,86,-99.99,,,0.00,weatherlink.com 1.10,2013-01-18 00:42:00,
2013-01-17 19:56:00,33.5,30.0,30.09,WNW,301,0.0,-999.0,86,-99.99,,,0.00,weatherlink.com 1.10,2013-01-18 00:56:00,
2013-01-17 20:12:00,33.3,30.0,30.09,WNW,301,0.0,-999.0,87,-99.99,,,0.00,weatherlink.com 1.10,2013-01-18 01:12:00,
2013-01-17 20:27:00,33.1,30.0,30.08,WNW,301,0.0,-999.0,87,-99.99,,,0.00,weatherlink.com 1.10,2013-01-18 01:27:00,
2013-01-17 20:41:00,33.0,30.0,30.08,WNW,301,0.0,-999.0,87,-99.99,,,0.00,weatherlink.com 1.10,2013-01-18 01:41:00,
2013-01-17 20:56:00,32.8,30.0,30.08,WNW,301,0.0,-999.0,88,-99.99,,,0.00,weatherlink.com 1.10,2013-01-18 01:56:00,
2013-01-17 21:12:00,32.7,30.0,30.07,WNW,301,0.0,-999.0,88,-99.99,,,0.00,weatherlink.com 1.10,2013-01-18 02:12:00,
2013-01-17 21:27:00,32.6,30.0,30.06,WNW,301,0.0,-999.0,88,-99.99,,,0.00,weatherlink.com 1.10,2013-01-18 02:27:00,
2013-01-17 21:42:00,32.5,29.0,30.06,WNW,301,0.0,-999.0,88,-99.99,,,0.00,weatherlink.com 1.10,2013-01-18 02:42:00,
2013-01-17 21:57:00,32.4,29.0,30.07,WNW,301,0.0,-999.0,88,-99.99,,,0.00,weatherlink.com 1.10,2013-01-18 02:57:00,
2013-01-17 22:12:00,32.2,29.0,30.06,WNW,301,0.0,-999.0,89,-99.99,,,0.00,weatherlink.com 1.10,2013-01-18 03:12:00,
2013-01-17 22:27:00,32.1,29.0,30.06,WNW,301,0.0,-999.0,89,-99.99,,,0.00,weatherlink.com 1.10,2013-01-18 03:27:00,
2013-01-17 22:42:00,31.9,29.0,30.05,WNW,301,0.0,-999.0,89,-99.99,,,0.00,weatherlink.com 1.10,2013-01-18 03:42:00,
2013-01-17 22:57:00,31.7,29.0,30.04,WNW,301,0.0,-999.0,89,-99.99,,,0.00,weatherlink.com 1.10,2013-01-18 03:57:00,
2013-01-17 23:12:00,31.6,29.0,30.05,WNW,301,0.0,-999.0,89,-99.99,,,0.00,weatherlink.com 1.10,2013-01-18 04:12:00,
2013-01-17 23:28:00,31.5,29.0,30.05,WNW,301,0.0,-999.0,89,-99.99,,,0.00,weatherlink.com 1.10,2013-01-18 04:28:00,
2013-01-17 23:42:00,31.5,29.0,30.05,WNW,301,0.0,-999.0,90,-99.99,,,0.00,weatherlink.com 1.10,2013-01-18 04:42:00,
2013-01-17 23:57:00,31.4,29.0,30.04,WNW,301,0.0,-999.0,90,-99.99,,,0.00,weatherlink.com 1.10,2013-01-18 04:57:00,